TimePST,TemperatureF,Dew PointF,Humidity,Sea Level PressureIn,VisibilityMPH,Wind Direction,Wind SpeedMPH,Gust SpeedMPH,PrecipitationIn,Events,Conditions,WindDirDegrees,DateUTC
12:15 AM,46.4,30.2,53,30.26,10.0,ESE,17.3,20.7,N/A,,Clear,110,2014-01-05 08:15:00
12:35 AM,46.4,28.4,50,30.26,10.0,ESE,16.1,-,N/A,,Clear,110,2014-01-05 08:35:00
12:55 AM,46.4,28.4,50,30.26,10.0,ESE,13.8,-,N/A,,Clear,110,2014-01-05 08:55:00
1:15 AM,46.4,28.4,50,30.26,10.0,ESE,10.4,-,N/A,,Clear,110,2014-01-05 09:15:00
1:35 AM,46.4,28.4,50,30.25,10.0,East,11.5,-,N/A,,Clear,100,2014-01-05 09:35:00
1:55 AM,46.4,28.4,50,30.26,10.0,East,9.2,-,N/A,,Clear,90,2014-01-05 09:55:00
2:15 AM,46.4,28.4,50,30.26,10.0,ESE,15.0,21.9,N/A,,Clear,110,2014-01-05 10:15:00
2:35 AM,44.6,30.2,57,30.26,10.0,SE,6.9,-,N/A,,Clear,130,2014-01-05 10:35:00
2:55 AM,39.2,30.2,70,30.27,10.0,SE,6.9,-,N/A,,Clear,130,2014-01-05 10:55:00
3:15 AM,46.4,26.6,46,30.26,10.0,East,15.0,19.6,N/A,,Clear,100,2014-01-05 11:15:00
3:35 AM,41.0,28.4,61,30.27,10.0,SE,5.8,-,N/A,,Clear,140,2014-01-05 11:35:00
3:55 AM,44.6,28.4,53,30.26,10.0,SSE,6.9,18.4,N/A,,Clear,160,2014-01-05 11:55:00
4:15 AM,37.4,28.4,70,30.26,10.0,SE,3.5,-,N/A,,Clear,140,2014-01-05 12:15:00
4:35 AM,42.8,28.4,57,30.26,10.0,SSE,3.5,-,N/A,,Clear,160,2014-01-05 12:35:00
4:55 AM,41.0,28.4,61,30.26,10.0,ESE,4.6,-,N/A,,Clear,120,2014-01-05 12:55:00
5:15 AM,41.0,28.4,61,30.26,10.0,SE,5.8,-,N/A,,Clear,130,2014-01-05 13:15:00
5:35 AM,41.0,28.4,61,30.26,10.0,South,3.5,-,N/A,,Clear,180,2014-01-05 13:35:00
5:55 AM,46.4,24.8,43,30.25,10.0,East,15.0,-,N/A,,Clear,100,2014-01-05 13:55:00
6:15 AM,46.4,24.8,43,30.25,10.0,East,13.8,-,N/A,,Clear,100,2014-01-05 14:15:00
6:35 AM,46.4,24.8,43,30.25,10.0,East,15.0,20.7,N/A,,Clear,100,2014-01-05 14:35:00
6:55 AM,46.4,24.8,43,30.25,10.0,East,13.8,20.7,N/A,,Clear,100,2014-01-05 14:55:00
7:15 AM,46.4,24.8,43,30.25,10.0,ESE,13.8,-,N/A,,Clear,110,2014-01-05 15:15:00
7:35 AM,46.4,24.8,43,30.25,10.0,East,17.3,23.0,N/A,,Clear,100,2014-01-05 15:35:00
7:55 AM,46.4,24.8,43,30.24,10.0,ESE,19.6,-,N/A,,Clear,110,2014-01-05 15:55:00
8:15 AM,46.4,23.0,40,30.24,10.0,ESE,19.6,24.2,N/A,,Clear,110,2014-01-05 16:15:00
8:35 AM,46.4,24.8,43,30.26,10.0,ESE,15.0,-,N/A,,Clear,120,2014-01-05 16:35:00
8:55 AM,46.4,24.8,43,30.27,10.0,East,11.5,-,N/A,,Clear,100,2014-01-05 16:55:00
9:15 AM,48.2,23.0,37,30.27,10.0,East,11.5,16.1,N/A,,Clear,100,2014-01-05 17:15:00
9:35 AM,48.2,23.0,37,30.27,10.0,ESE,15.0,-,N/A,,Clear,110,2014-01-05 17:35:00
9:55 AM,50.0,24.8,37,30.27,10.0,ESE,11.5,-,N/A,,Clear,120,2014-01-05 17:55:00
10:15 AM,51.8,24.8,35,30.26,10.0,ESE,17.3,-,N/A,,Clear,110,2014-01-05 18:15:00
10:35 AM,53.6,24.8,33,30.27,10.0,East,12.7,-,N/A,,Clear,100,2014-01-05 18:35:00
10:55 AM,53.6,24.8,33,30.26,10.0,East,11.5,-,N/A,,Clear,90,2014-01-05 18:55:00
11:15 AM,55.4,24.8,31,30.26,10.0,East,11.5,17.3,N/A,,Clear,80,2014-01-05 19:15:00
11:35 AM,57.2,24.8,29,30.25,10.0,East,9.2,-,N/A,,Clear,80,2014-01-05 19:35:00
11:55 AM,60.8,24.8,25,30.24,10.0,East,10.4,-,N/A,,Clear,80,2014-01-05 19:55:00
12:15 PM,60.8,24.8,25,30.22,10.0,East,10.4,-,N/A,,Clear,90,2014-01-05 20:15:00
12:35 PM,60.8,26.6,27,30.21,10.0,East,11.5,-,N/A,,Clear,90,2014-01-05 20:35:00
12:55 PM,60.8,28.4,29,30.20,10.0,East,10.4,16.1,N/A,,Clear,100,2014-01-05 20:55:00
1:15 PM,60.8,26.6,27,30.19,10.0,East,8.1,-,N/A,,Clear,90,2014-01-05 21:15:00
1:35 PM,60.8,26.6,27,30.18,10.0,East,10.4,-,N/A,,Clear,90,2014-01-05 21:35:00
1:55 PM,62.6,26.6,26,30.17,10.0,East,9.2,-,N/A,,Clear,90,2014-01-05 21:55:00
2:15 PM,62.6,26.6,26,30.15,10.0,East,13.8,18.4,N/A,,Clear,90,2014-01-05 22:15:00
2:35 PM,62.6,26.6,26,30.15,10.0,ESE,6.9,17.3,N/A,,Clear,110,2014-01-05 22:35:00
2:55 PM,62.6,26.6,26,30.15,10.0,East,8.1,-,N/A,,Clear,90,2014-01-05 22:55:00
3:15 PM,60.8,32.0,34,30.15,10.0,ESE,8.1,-,N/A,,Clear,120,2014-01-05 23:15:00
3:35 PM,60.8,30.2,31,30.15,10.0,ESE,8.1,-,N/A,,Clear,110,2014-01-05 23:35:00
3:55 PM,60.8,30.2,31,30.15,10.0,East,8.1,-,N/A,,Clear,100,2014-01-05 23:55:00
4:15 PM,57.2,33.8,41,30.15,10.0,SSE,4.6,-,N/A,,Clear,150,2014-01-06 00:15:00
4:35 PM,53.6,33.8,47,30.15,10.0,SSE,6.9,-,N/A,,Clear,160,2014-01-06 00:35:00
4:55 PM,53.6,32.0,44,30.15,10.0,SSE,5.8,-,N/A,,Clear,150,2014-01-06 00:55:00
5:15 PM,53.6,30.2,41,30.15,10.0,SE,4.6,-,N/A,,Clear,140,2014-01-06 01:15:00
5:35 PM,51.8,32.0,47,30.16,10.0,ESE,4.6,-,N/A,,Clear,120,2014-01-06 01:35:00
5:55 PM,48.2,33.8,58,30.16,10.0,SE,3.5,-,N/A,,Clear,140,2014-01-06 01:55:00
6:15 PM,48.2,30.2,50,30.17,10.0,South,3.5,-,N/A,,Clear,190,2014-01-06 02:15:00
6:35 PM,50.0,30.2,47,30.17,10.0,SE,5.8,-,N/A,,Clear,130,2014-01-06 02:35:00
6:55 PM,46.4,30.2,53,30.17,10.0,South,3.5,-,N/A,,Clear,190,2014-01-06 02:55:00
7:15 PM,46.4,32.0,57,30.17,10.0,SSE,5.8,-,N/A,,Clear,150,2014-01-06 03:15:00
7:35 PM,46.4,30.2,53,30.18,10.0,SSE,6.9,-,N/A,,Clear,160,2014-01-06 03:35:00
7:55 PM,46.4,32.0,57,30.18,10.0,SSE,8.1,-,N/A,,Clear,150,2014-01-06 03:55:00
8:15 PM,44.6,33.8,66,30.18,10.0,SE,9.2,-,N/A,,Clear,140,2014-01-06 04:15:00
8:35 PM,44.6,33.8,66,30.18,10.0,SSE,10.4,-,N/A,,Clear,150,2014-01-06 04:35:00
8:55 PM,44.6,33.8,66,30.18,10.0,SSE,10.4,-,N/A,,Clear,150,2014-01-06 04:55:00
9:15 PM,42.8,33.8,70,30.18,10.0,SSE,11.5,-,N/A,,Clear,150,2014-01-06 05:15:00
9:35 PM,42.8,33.8,70,30.18,10.0,SSE,10.4,-,N/A,,Clear,150,2014-01-06 05:35:00
9:55 PM,42.8,33.8,70,30.18,10.0,SE,10.4,-,N/A,,Clear,140,2014-01-06 05:55:00
10:15 PM,42.8,33.8,70,30.18,10.0,SE,6.9,-,N/A,,Clear,140,2014-01-06 06:15:00
10:35 PM,42.8,33.8,70,30.18,10.0,SSE,9.2,-,N/A,,Clear,150,2014-01-06 06:35:00
10:55 PM,44.6,33.8,66,30.19,10.0,South,5.8,-,N/A,,Clear,180,2014-01-06 06:55:00
11:15 PM,44.6,33.8,66,30.20,10.0,SSE,6.9,-,N/A,,Clear,160,2014-01-06 07:15:00
11:35 PM,42.8,33.8,70,30.19,10.0,ESE,6.9,-,N/A,,Clear,120,2014-01-06 07:35:00
11:55 PM,42.8,33.8,70,30.19,10.0,SE,9.2,-,N/A,,Clear,130,2014-01-06 07:55:00